Weather History for Mullan Pass, ID

Change the Weather History Date:

Tuesday, January 15, 2013

  Actual Average (K3TH) Record (K3TH)
Temperature  
Mean Temperature 18 °F -  
Max Temperature 23 °F 32 °F 44 °F (1999)
Min Temperature 12 °F 25 °F 5 °F (1997)
Degree Days  
Heating Degree Days 48    
Moisture  
Dew Point 15 °F    
Average Humidity 91    
Maximum Humidity 100    
Minimum Humidity 81    
Precipitation  
Precipitation 0.00 in - - ()
Sea Level Pressure  
Sea Level Pressure 30.42 in    
Wind  
Wind Speed 3 mph (WNW)    
Max Wind Speed 10 mph    
Max Gust Speed -    
Visibility 2 miles    
Events Fog , Snow    
Averages and records for this station are not official NWS values.
T = Trace of Precipitation, MM = Missing Value Source: NWS Daily Summary

Daily Weather History Graph

Daily Weather History Graph

Search for Another Location

Airport:

Trip Planner

Search our weather history database for the weather conditions in past years. The results will help you decide how hot, cold, wet, or windy it might be!

Date:

Astronomy

Jan. 15, 2013 Rise Set
Actual Time 7:25 AM PST 4:19 PM PST
Civil Twilight 6:50 AM PST 4:54 PM PST
Nautical Twilight 6:12 AM PST 5:32 PM PST
Astronomical Twilight 5:35 AM PST 6:09 PM PST
Moon 9:11 AM PST (1/15) 9:38 PM PST (1/15)
Length of Visible Light 10h 03m
Length of Day
8h 54m
Waxing Crescent, 20% of the Moon is Illuminated
Jan 15
Waxing Crescent
Jan 18
First Quarter
Jan 26
Full
Feb 3
Last Quarter
Feb 9
New

Hourly Weather History & Observations

Time (PST) Temp. Windchill Dew Point Humidity Pressure Visibility Wind Dir Wind Speed Gust Speed Precip Events Conditions
12:53 AM 12.0 °F - 10.9 °F 95% 30.44 in 0.8 mi Calm Calm - N/A   Mist
1:09 AM 12.2 °F - 12.2 °F 100% 30.18 in 0.2 mi Calm Calm - N/A Fog Light Freezing Fog
1:53 AM 12.9 °F - 12.0 °F 96% 30.46 in 1.8 mi Calm Calm - N/A   Mist
1:56 AM 12.2 °F - 12.2 °F 100% 30.20 in 3.0 mi Calm Calm - N/A   Mist
2:03 AM 12.2 °F 6.1 °F 10.4 °F 92% 30.21 in 1.5 mi SW 3.5 mph - N/A   Mist
2:08 AM 12.2 °F 6.1 °F 12.2 °F 100% 30.20 in 0.8 mi SSW 3.5 mph - N/A   Mist
2:27 AM 12.2 °F 4.3 °F 12.2 °F 100% 30.20 in 0.2 mi SW 4.6 mph - N/A Fog Light Freezing Fog
2:36 AM 12.2 °F 6.1 °F 12.2 °F 100% 30.20 in 0.5 mi WSW 3.5 mph - N/A Fog Light Freezing Fog
2:53 AM 14.0 °F 6.5 °F 12.9 °F 95% 30.45 in 0.2 mi Variable 4.6 mph - N/A Fog Light Freezing Fog
3:02 AM 15.8 °F 8.6 °F 14.0 °F 93% 30.19 in 0.8 mi WSW 4.6 mph - N/A   Mist
3:26 AM 14.0 °F 8.2 °F 12.2 °F 93% 30.20 in 1.0 mi WNW 3.5 mph - N/A   Mist
3:34 AM 14.0 °F - 12.2 °F 93% 30.20 in 0.5 mi Calm Calm - N/A Fog Light Freezing Fog
3:53 AM 14.0 °F 8.2 °F 12.0 °F 92% 30.46 in 0.5 mi Variable 3.5 mph - N/A Fog Light Freezing Fog
4:04 AM 14.0 °F - 12.2 °F 93% 30.21 in 0.2 mi Calm Calm - N/A Fog Light Freezing Fog
4:53 AM 14.0 °F 8.2 °F 12.9 °F 95% 30.47 in 0.2 mi Variable 3.5 mph - N/A Fog Light Freezing Fog
5:53 AM 14.0 °F 6.5 °F 12.9 °F 95% 30.48 in 0.2 mi Variable 4.6 mph - N/A Fog Light Freezing Fog
6:53 AM 15.1 °F 7.7 °F 14.0 °F 95% 30.51 in 0.2 mi NW 4.6 mph - N/A Fog Light Freezing Fog
7:53 AM 15.1 °F 9.4 °F 14.0 °F 95% 30.52 in 0.2 mi Variable 3.5 mph - N/A Fog Light Freezing Fog
8:53 AM 16.0 °F 10.4 °F 15.1 °F 96% 30.53 in 0.2 mi Variable 3.5 mph - 0.00 in Fog , Snow Light Snow
9:32 AM 15.8 °F 10.2 °F 15.8 °F 100% 30.29 in 0.2 mi Variable 3.5 mph - 0.00 in Fog , Snow Light Snow
9:53 AM 16.0 °F 10.4 °F 15.1 °F 96% 30.56 in 0.2 mi Variable 3.5 mph - 0.00 in Fog , Snow Light Snow
10:53 AM 18.0 °F 12.7 °F 17.1 °F 96% 30.55 in 0.2 mi Variable 3.5 mph - 0.00 in Fog Light Freezing Fog
11:53 AM 21.0 °F 14.6 °F 17.1 °F 85% 30.54 in 0.2 mi Variable 4.6 mph - N/A Fog Light Freezing Fog
12:53 PM 21.9 °F 15.7 °F 17.1 °F 82% 30.53 in 0.2 mi Variable 4.6 mph - N/A   Haze
1:53 PM 23.0 °F - 18.0 °F 81% 30.54 in 0.2 mi Calm Calm - N/A   Haze
2:53 PM 23.0 °F 15.8 °F 18.0 °F 81% 30.55 in 0.2 mi Variable 5.8 mph - N/A   Haze
3:53 PM 21.9 °F 13.4 °F 17.1 °F 82% 30.56 in 0.2 mi NW 6.9 mph - N/A   Haze
4:50 PM 21.2 °F 10.9 °F 17.6 °F 86% 30.35 in 0.5 mi NW 9.2 mph - N/A Fog Light Freezing Fog
4:53 PM 21.0 °F 10.6 °F 17.1 °F 85% 30.56 in 0.5 mi NW 9.2 mph - N/A Fog Light Freezing Fog
5:53 PM 19.9 °F 8.6 °F 16.0 °F 85% 30.58 in 0.5 mi NW 10.4 mph - N/A Fog Light Freezing Fog
6:15 PM 19.4 °F 8.6 °F 15.8 °F 86% 30.36 in 1.5 mi NW 9.2 mph - N/A   Mostly Cloudy
6:17 PM 19.4 °F 7.9 °F 15.8 °F 86% 30.36 in 3.0 mi NW 10.4 mph - N/A   Mostly Cloudy
6:29 PM 21.2 °F 11.7 °F 17.6 °F 86% 30.36 in 10.0 mi NW 8.1 mph - N/A   Scattered Clouds
6:53 PM 21.0 °F 11.4 °F 16.0 °F 81% 30.57 in 10.0 mi NNW 8.1 mph - N/A   Partly Cloudy
7:53 PM 21.0 °F 14.6 °F 16.0 °F 81% 30.57 in 10.0 mi NNW 4.6 mph - N/A   Clear
8:53 PM 21.0 °F 14.6 °F 16.0 °F 81% 30.56 in 10.0 mi WNW 4.6 mph - N/A   Clear
9:53 PM 21.0 °F 14.6 °F 16.0 °F 81% 30.56 in 10.0 mi WNW 4.6 mph - N/A   Clear
10:53 PM 21.9 °F 15.7 °F 17.1 °F 82% 30.54 in 10.0 mi West 4.6 mph - N/A   Clear